TimePDT,TemperatureF,Dew PointF,Humidity,Sea Level PressureIn,VisibilityMPH,Wind Direction,Wind SpeedMPH,Gust SpeedMPH,PrecipitationIn,Events,Conditions,WindDirDegrees,DateUTC
12:56 AM,53.1,35.1,50,29.91,10.0,Calm,Calm,-,N/A,,Clear,0,2013-07-29 07:56:00
1:56 AM,51.1,35.1,54,29.91,10.0,Calm,Calm,-,N/A,,Clear,0,2013-07-29 08:56:00
2:56 AM,46.9,34.0,61,29.91,10.0,Calm,Calm,-,N/A,,Clear,0,2013-07-29 09:56:00
3:56 AM,48.0,36.0,63,29.91,10.0,Calm,Calm,-,N/A,,Clear,0,2013-07-29 10:56:00
4:56 AM,39.9,33.1,77,29.93,10.0,South,3.5,-,N/A,,Clear,170,2013-07-29 11:56:00
5:56 AM,44.1,34.0,68,29.93,10.0,SSE,6.9,-,N/A,,Clear,160,2013-07-29 12:56:00
6:56 AM,50.0,36.0,59,29.93,10.0,SE,3.5,-,N/A,,Clear,140,2013-07-29 13:56:00
7:56 AM,57.9,39.0,49,29.92,10.0,Calm,Calm,-,N/A,,Clear,0,2013-07-29 14:56:00
8:56 AM,63.0,37.0,38,29.93,10.0,Variable,3.5,-,N/A,,Clear,0,2013-07-29 15:56:00
9:56 AM,69.1,37.0,31,29.91,10.0,ENE,3.5,-,N/A,,Clear,60,2013-07-29 16:56:00
10:56 AM,73.9,33.1,22,29.91,10.0,North,4.6,-,N/A,,Clear,350,2013-07-29 17:56:00
11:56 AM,77.0,32.0,19,29.90,10.0,Variable,4.6,-,N/A,,Clear,0,2013-07-29 18:56:00
12:56 PM,81.0,30.9,16,29.88,10.0,Variable,5.8,-,N/A,,Clear,0,2013-07-29 19:56:00
1:56 PM,84.0,30.0,14,29.86,10.0,WNW,10.4,20.7,N/A,,Clear,290,2013-07-29 20:56:00
2:56 PM,84.9,30.9,14,29.86,10.0,North,8.1,17.3,N/A,,Clear,350,2013-07-29 21:56:00
3:56 PM,84.0,32.0,15,29.86,10.0,Variable,5.8,-,N/A,,Clear,0,2013-07-29 22:56:00
4:56 PM,82.9,30.0,15,29.87,10.0,North,9.2,-,N/A,,Clear,350,2013-07-29 23:56:00
5:56 PM,82.0,30.0,15,29.86,10.0,North,8.1,-,N/A,,Clear,360,2013-07-30 00:56:00
6:56 PM,82.0,30.0,15,29.86,10.0,NNW,10.4,-,N/A,,Clear,340,2013-07-30 01:56:00
7:56 PM,78.1,35.1,21,29.88,10.0,NW,12.7,-,N/A,,Clear,310,2013-07-30 02:56:00
8:56 PM,73.0,37.9,28,29.91,10.0,NW,9.2,-,N/A,,Clear,320,2013-07-30 03:56:00
9:56 PM,69.1,43.0,39,29.94,10.0,NW,8.1,-,N/A,,Clear,320,2013-07-30 04:56:00
10:56 PM,66.0,43.0,43,29.95,10.0,North,3.5,-,N/A,,Clear,350,2013-07-30 05:56:00
11:56 PM,64.0,43.0,46,29.96,10.0,WNW,3.5,-,N/A,,Clear,290,2013-07-30 06:56:00